Time,TemperatureF,DewpointF,PressureIn,WindDirection,WindDirectionDegrees,WindSpeedMPH,WindSpeedGustMPH,Humidity,HourlyPrecipIn,Conditions,Clouds,dailyrainin,SoftwareType,DateUTC
2013-07-10 00:01:00,73.5,71.4,29.47,WSW,246,0.0,0.0,93,0.00,RA,,0.00,WeatherDisplay:10.37,2013-07-10 04:01:00,
2013-07-10 00:06:00,73.3,71.2,29.46,SW,227,2.3,0.0,93,0.00,RA,,0.00,WeatherDisplay:10.37,2013-07-10 04:06:00,
2013-07-10 00:11:00,73.3,71.2,29.46,SW,230,2.3,2.3,93,0.00,CLR,,0.00,WeatherDisplay:10.37,2013-07-10 04:11:00,
2013-07-10 00:16:00,73.2,71.1,29.46,SW,227,0.0,0.1,93,0.00,CLR,,0.00,WeatherDisplay:10.37,2013-07-10 04:16:00,
2013-07-10 00:21:00,73.2,71.1,29.46,SSW,213,1.1,1.1,93,0.00,CLR,,0.00,WeatherDisplay:10.37,2013-07-10 04:21:00,
2013-07-10 00:26:00,73.2,71.4,29.46,SSW,213,0.0,0.0,94,0.00,CLR,,0.00,WeatherDisplay:10.37,2013-07-10 04:26:00,
2013-07-10 00:31:00,73.0,71.2,29.46,SSW,213,0.0,0.1,94,0.00,CLR,,0.00,WeatherDisplay:10.37,2013-07-10 04:31:00,
2013-07-10 00:36:00,73.0,71.2,29.45,SW,219,4.6,4.6,94,0.00,CLR,,0.00,WeatherDisplay:10.37,2013-07-10 04:36:00,
2013-07-10 00:41:00,73.0,71.2,29.45,SW,226,0.0,0.0,94,0.00,CLR,,0.00,WeatherDisplay:10.37,2013-07-10 04:41:00,
2013-07-10 00:46:00,73.0,71.2,29.45,SW,227,2.3,0.0,94,0.00,CLR,,0.00,WeatherDisplay:10.37,2013-07-10 04:46:00,
2013-07-10 00:51:00,72.8,71.0,29.44,SW,227,2.0,2.0,94,0.00,CLR,,0.00,WeatherDisplay:10.37,2013-07-10 04:51:00,
2013-07-10 00:56:00,72.8,71.0,29.44,SW,220,3.5,0.0,94,0.00,CLR,,0.00,WeatherDisplay:10.37,2013-07-10 04:56:00,
2013-07-10 01:01:00,72.8,71.3,29.44,SW,216,1.1,0.0,95,0.00,CLR,,0.00,WeatherDisplay:10.37,2013-07-10 05:01:00,
2013-07-10 01:06:00,72.8,71.3,29.45,SW,222,1.1,0.0,95,0.00,CLR,,0.00,WeatherDisplay:10.37,2013-07-10 05:06:00,
2013-07-10 01:11:00,72.8,71.3,29.45,WSW,246,4.6,0.0,95,0.00,CLR,,0.00,WeatherDisplay:10.37,2013-07-10 05:11:00,
2013-07-10 01:16:00,72.8,71.3,29.45,SW,234,3.5,3.5,95,0.00,CLR,,0.00,WeatherDisplay:10.37,2013-07-10 05:16:00,
2013-07-10 01:21:00,72.8,71.3,29.45,WSW,237,3.5,0.0,95,0.00,CLR,,0.00,WeatherDisplay:10.37,2013-07-10 05:21:00,
2013-07-10 01:26:00,72.8,71.3,29.45,WSW,243,0.0,0.0,95,0.00,CLR,,0.00,WeatherDisplay:10.37,2013-07-10 05:26:00,
2013-07-10 01:31:00,72.8,71.6,29.45,SW,232,4.6,4.6,96,0.00,CLR,,0.00,WeatherDisplay:10.37,2013-07-10 05:31:00,
2013-07-10 01:36:00,72.8,71.6,29.44,SW,232,0.0,0.0,96,0.00,CLR,,0.00,WeatherDisplay:10.37,2013-07-10 05:36:00,
2013-07-10 01:41:00,72.8,71.6,29.44,SW,230,1.1,0.0,96,0.00,CLR,,0.00,WeatherDisplay:10.37,2013-07-10 05:41:00,
2013-07-10 01:46:00,73.0,71.8,29.44,SW,230,2.3,2.3,96,0.00,CLR,,0.00,WeatherDisplay:10.37,2013-07-10 05:46:00,
2013-07-10 01:51:00,73.0,71.8,29.44,SW,233,4.6,4.6,96,0.00,CLR,,0.00,WeatherDisplay:10.37,2013-07-10 05:51:00,
2013-07-10 01:56:00,73.0,71.8,29.44,SW,232,2.3,2.3,96,0.00,CLR,,0.00,WeatherDisplay:10.37,2013-07-10 05:56:00,
2013-07-10 02:01:00,73.2,72.0,29.44,WSW,248,6.9,6.9,96,0.00,CLR,,0.00,WeatherDisplay:10.37,2013-07-10 06:01:00,
2013-07-10 02:06:00,73.2,72.0,29.44,WSW,239,5.8,5.8,96,0.00,CLR,,0.00,WeatherDisplay:10.37,2013-07-10 06:06:00,
2013-07-10 02:11:00,73.2,71.7,29.44,WSW,237,3.5,0.0,95,0.00,CLR,,0.00,WeatherDisplay:10.37,2013-07-10 06:11:00,
2013-07-10 02:16:00,73.2,71.7,29.44,WSW,253,1.1,1.1,95,0.00,CLR,,0.00,WeatherDisplay:10.37,2013-07-10 06:16:00,
2013-07-10 02:21:00,73.2,71.7,29.43,SW,236,1.1,1.5,95,0.00,CLR,,0.00,WeatherDisplay:10.37,2013-07-10 06:21:00,
2013-07-10 02:26:00,73.2,71.7,29.43,SW,227,0.0,1.4,95,0.00,CLR,,0.00,WeatherDisplay:10.37,2013-07-10 06:26:00,
2013-07-10 02:31:00,73.0,71.8,29.43,SW,229,2.3,2.3,96,0.00,CLR,,0.00,WeatherDisplay:10.37,2013-07-10 06:31:00,
2013-07-10 02:36:00,73.0,71.8,29.43,SW,229,0.0,0.0,96,0.00,CLR,,0.00,WeatherDisplay:10.37,2013-07-10 06:36:00,
2013-07-10 02:41:00,73.0,71.8,29.43,West,260,8.1,8.1,96,0.00,CLR,,0.00,WeatherDisplay:10.37,2013-07-10 06:41:00,
2013-07-10 02:46:00,73.0,71.8,29.43,WSW,247,4.6,4.6,96,0.00,CLR,,0.00,WeatherDisplay:10.37,2013-07-10 06:46:00,
2013-07-10 02:51:00,73.0,71.8,29.42,SW,220,6.9,6.9,96,0.00,CLR,,0.00,WeatherDisplay:10.37,2013-07-10 06:51:00,
2013-07-10 02:56:00,73.0,71.8,29.42,SW,234,1.1,1.1,96,0.00,CLR,,0.00,WeatherDisplay:10.37,2013-07-10 06:56:00,
2013-07-10 03:01:00,73.0,71.8,29.42,SW,220,2.3,2.3,96,0.00,CLR,,0.00,WeatherDisplay:10.37,2013-07-10 07:01:00,
2013-07-10 03:06:00,73.0,71.8,29.42,WSW,250,2.3,2.3,96,0.00,CLR,,0.00,WeatherDisplay:10.37,2013-07-10 07:06:00,
2013-07-10 03:11:00,73.0,71.8,29.42,WSW,258,0.0,0.0,96,0.00,CLR,,0.00,WeatherDisplay:10.37,2013-07-10 07:11:00,
2013-07-10 03:16:00,73.0,71.8,29.42,WSW,240,0.0,0.0,96,0.00,CLR,,0.00,WeatherDisplay:10.37,2013-07-10 07:16:00,
2013-07-10 03:21:00,73.0,71.8,29.41,SW,226,4.6,4.6,96,0.00,CLR,,0.00,WeatherDisplay:10.37,2013-07-10 07:21:00,
2013-07-10 03:26:00,73.0,71.8,29.41,WNW,282,4.6,4.6,96,0.00,CLR,,0.00,WeatherDisplay:10.37,2013-07-10 07:26:00,
2013-07-10 03:31:00,73.0,71.8,29.41,SW,224,3.5,3.5,96,0.00,CLR,,0.00,WeatherDisplay:10.37,2013-07-10 07:31:00,
2013-07-10 03:36:00,73.0,71.8,29.41,SW,229,3.5,3.5,96,0.00,CLR,,0.00,WeatherDisplay:10.37,2013-07-10 07:36:00,
2013-07-10 03:41:00,73.0,72.1,29.41,WSW,244,0.0,0.0,97,0.00,CLR,,0.00,WeatherDisplay:10.37,2013-07-10 07:41:00,
2013-07-10 03:46:00,72.8,71.6,29.41,WSW,258,2.3,2.3,96,0.00,CLR,,0.00,WeatherDisplay:10.37,2013-07-10 07:46:00,
2013-07-10 03:51:00,72.8,71.9,29.41,WSW,247,0.0,0.0,97,0.00,CLR,,0.00,WeatherDisplay:10.37,2013-07-10 07:51:00,
2013-07-10 03:56:00,72.8,71.9,29.41,WSW,248,4.6,4.6,97,0.00,CLR,,0.00,WeatherDisplay:10.37,2013-07-10 07:56:00,
2013-07-10 04:01:00,72.8,71.9,29.41,WSW,248,1.1,0.0,97,0.00,CLR,,0.00,WeatherDisplay:10.37,2013-07-10 08:01:00,
2013-07-10 04:06:00,72.8,71.9,29.42,SSW,212,8.1,8.1,97,0.00,CLR,,0.00,WeatherDisplay:10.37,2013-07-10 08:06:00,
2013-07-10 04:11:00,73.0,72.1,29.42,WSW,253,0.0,0.0,97,0.00,CLR,,0.00,WeatherDisplay:10.37,2013-07-10 08:11:00,
2013-07-10 04:16:00,73.0,72.1,29.42,SW,222,0.0,0.0,97,0.00,CLR,,0.00,WeatherDisplay:10.37,2013-07-10 08:16:00,
2013-07-10 04:21:00,73.0,72.1,29.42,SW,234,0.0,0.0,97,0.00,CLR,,0.00,WeatherDisplay:10.37,2013-07-10 08:21:00,
2013-07-10 04:26:00,73.0,72.1,29.42,WSW,250,5.8,5.8,97,0.00,CLR,,0.00,WeatherDisplay:10.37,2013-07-10 08:26:00,
2013-07-10 04:31:00,73.0,72.1,29.42,West,265,0.0,0.2,97,0.00,CLR,,0.00,WeatherDisplay:10.37,2013-07-10 08:31:00,
2013-07-10 04:36:00,73.0,72.1,29.42,WSW,253,3.5,3.5,97,0.00,CLR,,0.00,WeatherDisplay:10.37,2013-07-10 08:36:00,
2013-07-10 04:41:00,73.0,72.1,29.42,West,260,6.9,6.9,97,0.00,CLR,,0.00,WeatherDisplay:10.37,2013-07-10 08:41:00,
2013-07-10 04:46:00,73.0,72.1,29.42,West,261,5.8,5.8,97,0.00,CLR,,0.00,WeatherDisplay:10.37,2013-07-10 08:46:00,
2013-07-10 04:51:00,73.0,72.1,29.42,SW,233,0.0,0.0,97,0.00,CLR,,0.00,WeatherDisplay:10.37,2013-07-10 08:51:00,
2013-07-10 04:56:00,73.0,72.1,29.42,South,185,5.8,5.8,97,0.00,CLR,,0.00,WeatherDisplay:10.37,2013-07-10 08:56:00,
2013-07-10 05:01:00,73.0,72.1,29.42,WSW,244,5.8,5.8,97,0.00,CLR,,0.00,WeatherDisplay:10.37,2013-07-10 09:01:00,
2013-07-10 05:06:00,73.0,72.1,29.42,SW,229,4.6,4.6,97,0.00,CLR,,0.00,WeatherDisplay:10.37,2013-07-10 09:06:00,
2013-07-10 05:11:00,73.0,72.1,29.42,SW,220,3.5,3.5,97,0.00,CLR,,0.00,WeatherDisplay:10.37,2013-07-10 09:11:00,
2013-07-10 05:16:00,73.0,72.1,29.42,WSW,239,4.6,4.6,97,0.00,CLR,,0.00,WeatherDisplay:10.37,2013-07-10 09:16:00,
2013-07-10 05:21:00,73.0,72.1,29.42,WSW,239,4.6,4.6,97,0.00,CLR,,0.00,WeatherDisplay:10.37,2013-07-10 09:21:00,
2013-07-10 05:26:00,73.0,72.1,29.42,WSW,240,2.3,0.0,97,0.00,CLR,,0.00,WeatherDisplay:10.37,2013-07-10 09:26:00,
2013-07-10 05:31:00,73.0,72.1,29.42,WSW,253,8.1,8.1,97,0.00,CLR,,0.00,WeatherDisplay:10.37,2013-07-10 09:31:00,
2013-07-10 05:36:00,73.0,72.1,29.42,WSW,240,2.0,2.0,97,0.00,CLR,,0.00,WeatherDisplay:10.37,2013-07-10 09:36:00,
2013-07-10 05:41:00,73.0,72.1,29.42,SW,226,3.5,3.5,97,0.00,CLR,,0.00,WeatherDisplay:10.37,2013-07-10 09:41:00,
2013-07-10 05:46:00,73.0,72.1,29.42,SW,233,3.5,3.5,97,0.00,CLR,,0.00,WeatherDisplay:10.37,2013-07-10 09:46:00,
2013-07-10 05:51:00,73.0,72.1,29.43,WSW,239,4.6,4.6,97,0.00,CLR,,0.00,WeatherDisplay:10.37,2013-07-10 09:51:00,
2013-07-10 05:56:00,73.0,72.1,29.43,WSW,237,5.8,5.8,97,0.00,CLR,,0.00,WeatherDisplay:10.37,2013-07-10 09:56:00,
2013-07-10 06:01:00,73.0,72.1,29.43,NNW,329,6.9,6.9,97,0.00,CLR,,0.00,WeatherDisplay:10.37,2013-07-10 10:01:00,
2013-07-10 06:06:00,73.2,72.3,29.43,WSW,248,3.5,3.5,97,0.00,CLR,,0.00,WeatherDisplay:10.37,2013-07-10 10:06:00,
2013-07-10 06:07:00,73.2,72.3,29.43,WSW,248,3.5,3.5,97,0.00,CLR,,0.00,WeatherDisplay:10.37,2013-07-10 10:07:00,
2013-07-10 06:12:00,73.2,72.3,29.43,SW,229,5.8,5.8,97,0.00,CLR,,0.00,WeatherDisplay:10.37,2013-07-10 10:12:00,
2013-07-10 06:17:00,73.2,72.3,29.43,WSW,248,5.8,5.8,97,0.00,CLR,,0.00,WeatherDisplay:10.37,2013-07-10 10:17:00,
2013-07-10 06:22:00,73.2,72.3,29.42,WSW,256,4.6,4.6,97,0.00,CLR,,0.00,WeatherDisplay:10.37,2013-07-10 10:22:00,
2013-07-10 06:27:00,73.2,72.3,29.42,WSW,240,0.0,0.1,97,0.00,CLR,,0.00,WeatherDisplay:10.37,2013-07-10 10:27:00,
2013-07-10 06:32:00,73.2,72.3,29.42,SW,226,0.0,0.0,97,0.00,CLR,,0.00,WeatherDisplay:10.37,2013-07-10 10:32:00,
2013-07-10 06:37:00,73.2,72.3,29.42,SW,233,2.3,2.3,97,0.00,CLR,,0.00,WeatherDisplay:10.37,2013-07-10 10:37:00,
2013-07-10 06:42:00,73.2,72.3,29.42,West,261,5.8,0.0,97,0.00,CLR,,0.00,WeatherDisplay:10.37,2013-07-10 10:42:00,
2013-07-10 06:47:00,73.2,72.3,29.42,WSW,244,0.0,0.1,97,0.00,CLR,,0.00,WeatherDisplay:10.37,2013-07-10 10:47:00,
2013-07-10 06:52:00,73.2,72.3,29.42,WSW,248,4.6,4.6,97,0.00,CLR,,0.00,WeatherDisplay:10.37,2013-07-10 10:52:00,
2013-07-10 06:57:00,73.2,72.3,29.42,WSW,241,3.5,3.5,97,0.00,CLR,,0.00,WeatherDisplay:10.37,2013-07-10 10:57:00,
2013-07-10 07:02:00,73.2,72.3,29.42,WSW,243,2.3,0.0,97,0.00,CLR,,0.00,WeatherDisplay:10.37,2013-07-10 11:02:00,
2013-07-10 07:07:00,73.3,72.4,29.42,WSW,250,4.6,0.0,97,0.00,CLR,,0.00,WeatherDisplay:10.37,2013-07-10 11:07:00,
2013-07-10 07:12:00,73.3,72.4,29.42,SSW,210,4.0,4.0,97,0.00,CLR,,0.00,WeatherDisplay:10.37,2013-07-10 11:12:00,
2013-07-10 07:17:00,73.5,72.6,29.42,WSW,256,8.1,8.1,97,0.00,CLR,,0.00,WeatherDisplay:10.37,2013-07-10 11:17:00,
2013-07-10 07:22:00,73.5,72.6,29.42,SW,227,9.2,9.2,97,0.00,CLR,,0.00,WeatherDisplay:10.37,2013-07-10 11:22:00,
2013-07-10 07:27:00,73.7,72.8,29.42,SW,230,10.4,10.4,97,0.00,CLR,,0.00,WeatherDisplay:10.37,2013-07-10 11:27:00,
2013-07-10 07:32:00,73.7,72.8,29.42,South,189,4.6,4.6,97,0.00,CLR,,0.00,WeatherDisplay:10.37,2013-07-10 11:32:00,
2013-07-10 07:37:00,73.9,73.0,29.42,SW,232,5.8,5.8,97,0.00,CLR,,0.00,WeatherDisplay:10.37,2013-07-10 11:37:00,
2013-07-10 07:42:00,73.9,73.0,29.42,SW,219,6.9,6.9,97,0.00,CLR,,0.00,WeatherDisplay:10.37,2013-07-10 11:42:00,
2013-07-10 07:47:00,74.0,73.1,29.42,SSW,212,5.8,5.8,97,0.00,CLR,,0.00,WeatherDisplay:10.37,2013-07-10 11:47:00,
2013-07-10 07:52:00,74.0,73.1,29.42,WSW,244,8.1,8.1,97,0.00,CLR,,0.00,WeatherDisplay:10.37,2013-07-10 11:52:00,
2013-07-10 07:57:00,74.0,73.1,29.42,SSW,212,2.3,2.3,97,0.00,CLR,,0.00,WeatherDisplay:10.37,2013-07-10 11:57:00,
2013-07-10 08:02:00,74.2,73.0,29.42,WSW,246,0.0,0.1,96,0.00,CLR,,0.00,WeatherDisplay:10.37,2013-07-10 12:02:00,
2013-07-10 08:07:00,74.4,73.2,29.43,WSW,237,6.0,6.0,96,0.00,CLR,,0.00,WeatherDisplay:10.37,2013-07-10 12:07:00,
2013-07-10 08:12:00,74.4,73.2,29.43,SW,227,6.9,6.9,96,0.00,CLR,,0.00,WeatherDisplay:10.37,2013-07-10 12:12:00,
2013-07-10 08:17:00,74.6,73.4,29.43,WSW,253,3.5,0.0,96,0.00,CLR,,0.00,WeatherDisplay:10.37,2013-07-10 12:17:00,
2013-07-10 08:22:00,74.6,73.4,29.42,WSW,239,11.5,11.5,96,0.00,CLR,,0.00,WeatherDisplay:10.37,2013-07-10 12:22:00,
2013-07-10 08:27:00,74.6,73.1,29.42,West,275,8.1,8.1,95,0.00,CLR,,0.00,WeatherDisplay:10.37,2013-07-10 12:27:00,
2013-07-10 08:32:00,74.7,73.2,29.42,WSW,250,5.8,5.8,95,0.00,CLR,,0.00,WeatherDisplay:10.37,2013-07-10 12:32:00,
2013-07-10 08:37:00,74.9,73.4,29.43,West,275,3.5,3.5,95,0.00,CLR,,0.00,WeatherDisplay:10.37,2013-07-10 12:37:00,
2013-07-10 08:42:00,75.1,73.6,29.43,SW,229,3.5,3.5,95,0.00,CLR,,0.00,WeatherDisplay:10.37,2013-07-10 12:42:00,
2013-07-10 08:47:00,75.4,73.6,29.43,SW,227,11.0,11.0,94,0.00,CLR,,0.00,WeatherDisplay:10.37,2013-07-10 12:47:00,
2013-07-10 08:52:00,75.4,73.2,29.43,West,271,11.5,11.5,93,0.00,CLR,,0.00,WeatherDisplay:10.37,2013-07-10 12:52:00,
2013-07-10 08:57:00,75.8,73.3,29.43,West,260,6.9,6.9,92,0.00,CLR,,0.00,WeatherDisplay:10.37,2013-07-10 12:57:00,
2013-07-10 09:02:00,76.0,73.5,29.43,WSW,240,4.6,4.6,92,0.00,CLR,,0.00,WeatherDisplay:10.37,2013-07-10 13:02:00,
2013-07-10 09:07:00,76.1,73.0,29.43,WSW,258,9.2,9.2,90,0.00,CLR,,0.00,WeatherDisplay:10.37,2013-07-10 13:07:00,
2013-07-10 09:12:00,76.5,73.3,29.43,SW,226,0.0,0.0,90,0.00,CLR,,0.00,WeatherDisplay:10.37,2013-07-10 13:12:00,
2013-07-10 09:17:00,76.8,73.3,29.43,WSW,246,8.1,8.1,89,0.00,CLR,,0.00,WeatherDisplay:10.37,2013-07-10 13:17:00,
2013-07-10 09:22:00,77.0,73.2,29.43,WNW,291,1.0,0.0,88,0.00,CLR,,0.00,WeatherDisplay:10.37,2013-07-10 13:22:00,
2013-07-10 09:27:00,77.4,73.2,29.43,SSW,208,8.1,8.1,87,0.00,CLR,,0.00,WeatherDisplay:10.37,2013-07-10 13:27:00,
2013-07-10 09:32:00,77.4,72.9,29.43,SSW,199,6.9,6.9,86,0.00,CLR,,0.00,WeatherDisplay:10.37,2013-07-10 13:32:00,
2013-07-10 09:37:00,77.6,73.1,29.43,West,278,0.0,0.6,86,0.00,CLR,,0.00,WeatherDisplay:10.37,2013-07-10 13:37:00,
2013-07-10 09:42:00,77.6,72.7,29.43,West,268,5.8,5.8,85,0.00,CLR,,0.00,WeatherDisplay:10.37,2013-07-10 13:42:00,
2013-07-10 09:47:00,77.7,72.8,29.43,SW,233,5.8,5.8,85,0.00,CLR,,0.00,WeatherDisplay:10.37,2013-07-10 13:47:00,
2013-07-10 09:52:00,77.7,72.5,29.42,WSW,256,8.1,8.1,84,0.00,CLR,,0.00,WeatherDisplay:10.37,2013-07-10 13:52:00,
2013-07-10 09:57:00,77.9,73.0,29.42,WSW,256,6.0,6.0,85,0.00,CLR,,0.00,WeatherDisplay:10.37,2013-07-10 13:57:00,
2013-07-10 10:02:00,77.7,72.8,29.42,WSW,243,4.6,4.6,85,0.00,CLR,,0.00,WeatherDisplay:10.37,2013-07-10 14:02:00,
2013-07-10 10:07:00,77.9,73.4,29.42,SW,222,4.6,0.0,86,0.00,CLR,,0.00,WeatherDisplay:10.37,2013-07-10 14:07:00,
2013-07-10 10:12:00,77.9,72.7,29.42,SW,220,8.1,8.1,84,0.00,CLR,,0.00,WeatherDisplay:10.37,2013-07-10 14:12:00,
2013-07-10 10:17:00,78.1,72.5,29.42,SW,233,11.5,11.5,83,0.00,CLR,,0.00,WeatherDisplay:10.37,2013-07-10 14:17:00,
2013-07-10 10:22:00,78.3,72.3,29.42,SW,216,11.5,11.5,82,0.00,CLR,,0.00,WeatherDisplay:10.37,2013-07-10 14:22:00,
2013-07-10 10:27:00,78.5,72.9,29.42,WSW,251,4.6,4.6,83,0.00,CLR,,0.00,WeatherDisplay:10.37,2013-07-10 14:27:00,
2013-07-10 10:32:00,78.6,73.0,29.42,WSW,254,3.0,3.7,83,0.00,CLR,,0.00,WeatherDisplay:10.37,2013-07-10 14:32:00,
2013-07-10 10:37:00,78.8,72.8,29.42,WNW,282,4.0,4.0,82,0.00,CLR,,0.00,WeatherDisplay:10.37,2013-07-10 14:37:00,
2013-07-10 10:42:00,78.8,72.5,29.42,WSW,243,4.6,4.6,81,0.00,CLR,,0.00,WeatherDisplay:10.37,2013-07-10 14:42:00,
2013-07-10 10:47:00,78.8,72.8,29.42,SW,229,2.3,3.4,82,0.01,RA,,0.01,WeatherDisplay:10.37,2013-07-10 14:47:00,
2013-07-10 10:52:00,79.0,72.7,29.42,WSW,258,9.2,9.2,81,0.01,RA,,0.01,WeatherDisplay:10.37,2013-07-10 14:52:00,
2013-07-10 10:57:00,79.6,72.9,29.42,SW,219,5.8,5.8,80,0.01,CLR,,0.01,WeatherDisplay:10.37,2013-07-10 14:57:00,
2013-07-10 11:02:00,79.9,72.8,29.42,WSW,247,8.1,8.1,79,0.01,CLR,,0.01,WeatherDisplay:10.37,2013-07-10 15:02:00,
2013-07-10 11:07:00,80.3,72.8,29.42,WNW,285,10.4,10.4,78,0.01,CLR,,0.01,WeatherDisplay:10.37,2013-07-10 15:07:00,
2013-07-10 11:12:00,80.5,72.6,29.42,West,267,8.1,8.1,77,0.01,CLR,,0.01,WeatherDisplay:10.37,2013-07-10 15:12:00,
2013-07-10 11:17:00,80.7,73.2,29.42,SW,216,6.9,0.0,78,0.01,CLR,,0.01,WeatherDisplay:10.37,2013-07-10 15:17:00,
2013-07-10 11:22:00,81.2,73.7,29.42,SW,224,2.3,5.0,78,0.01,CLR,,0.01,WeatherDisplay:10.37,2013-07-10 15:22:00,
2013-07-10 11:27:00,81.2,72.5,29.42,WSW,248,12.7,12.7,75,0.01,CLR,,0.01,WeatherDisplay:10.37,2013-07-10 15:27:00,
2013-07-10 11:32:00,81.8,72.7,29.42,WSW,251,6.9,6.9,74,0.01,CLR,,0.01,WeatherDisplay:10.37,2013-07-10 15:32:00,
2013-07-10 11:37:00,81.6,72.9,29.42,WSW,246,6.9,6.9,75,0.01,CLR,,0.01,WeatherDisplay:10.37,2013-07-10 15:37:00,
2013-07-10 11:42:00,81.2,72.9,29.42,SW,236,3.5,3.5,76,0.01,CLR,,0.01,WeatherDisplay:10.37,2013-07-10 15:42:00,
2013-07-10 11:47:00,80.9,73.0,29.42,WSW,257,6.9,6.9,77,0.00,CLR,,0.01,WeatherDisplay:10.37,2013-07-10 15:47:00,
2013-07-10 11:52:00,80.7,73.2,29.42,WNW,291,3.5,3.5,78,0.00,CLR,,0.01,WeatherDisplay:10.37,2013-07-10 15:52:00,
2013-07-10 11:57:00,81.1,72.8,29.42,WSW,253,10.4,10.4,76,0.00,CLR,,0.01,WeatherDisplay:10.37,2013-07-10 15:57:00,
2013-07-10 12:02:00,81.6,73.3,29.42,SSW,205,16.1,16.1,76,0.00,CLR,,0.01,WeatherDisplay:10.37,2013-07-10 16:02:00,
2013-07-10 12:07:00,82.2,73.9,29.42,SW,232,10.4,10.4,76,0.00,CLR,,0.01,WeatherDisplay:10.37,2013-07-10 16:07:00,
2013-07-10 12:12:00,82.4,73.3,29.42,SSW,208,6.0,6.0,74,0.00,CLR,,0.01,WeatherDisplay:10.37,2013-07-10 16:12:00,
2013-07-10 12:17:00,81.8,73.1,29.42,SW,229,11.5,11.5,75,0.00,CLR,,0.01,WeatherDisplay:10.37,2013-07-10 16:17:00,
2013-07-10 12:22:00,81.4,73.1,29.41,SW,226,2.3,3.1,76,0.00,CLR,,0.01,WeatherDisplay:10.37,2013-07-10 16:22:00,
2013-07-10 12:27:00,81.4,73.9,29.41,SW,217,6.0,6.0,78,0.00,CLR,,0.01,WeatherDisplay:10.37,2013-07-10 16:27:00,
2013-07-10 12:32:00,82.0,73.7,29.41,WSW,237,5.8,5.8,76,0.00,CLR,,0.01,WeatherDisplay:10.37,2013-07-10 16:32:00,
2013-07-10 12:37:00,82.4,74.1,29.41,SW,233,6.9,6.9,76,0.00,CLR,,0.01,WeatherDisplay:10.37,2013-07-10 16:37:00,
2013-07-10 12:42:00,82.4,73.7,29.41,SW,234,11.5,11.5,75,0.00,CLR,,0.01,WeatherDisplay:10.37,2013-07-10 16:42:00,
2013-07-10 12:47:00,82.6,74.3,29.41,SSE,168,4.6,4.6,76,0.00,CLR,,0.01,WeatherDisplay:10.37,2013-07-10 16:47:00,
2013-07-10 12:52:00,83.2,74.4,29.41,WSW,251,0.0,0.0,75,0.00,CLR,,0.01,WeatherDisplay:10.37,2013-07-10 16:52:00,
2013-07-10 12:57:00,83.4,73.8,29.41,WSW,256,3.0,3.0,73,0.00,CLR,,0.01,WeatherDisplay:10.37,2013-07-10 16:57:00,
2013-07-10 13:02:00,83.4,74.2,29.41,SW,219,8.1,8.1,74,0.00,CLR,,0.01,WeatherDisplay:10.37,2013-07-10 17:02:00,
2013-07-10 13:07:00,83.0,74.3,29.41,West,264,3.5,3.5,75,0.00,CLR,,0.01,WeatherDisplay:10.37,2013-07-10 17:07:00,
2013-07-10 13:12:00,82.6,73.5,29.41,SW,227,6.9,6.9,74,0.00,CLR,,0.01,WeatherDisplay:10.37,2013-07-10 17:12:00,
2013-07-10 13:17:00,82.2,73.9,29.41,SW,224,4.6,4.6,76,0.00,CLR,,0.01,WeatherDisplay:10.37,2013-07-10 17:17:00,
2013-07-10 13:22:00,82.4,74.5,29.40,SW,215,5.8,5.8,77,0.00,CLR,,0.01,WeatherDisplay:10.37,2013-07-10 17:22:00,
2013-07-10 13:27:00,82.8,74.1,29.40,WSW,256,9.2,9.2,75,0.00,CLR,,0.01,WeatherDisplay:10.37,2013-07-10 17:27:00,
2013-07-10 13:32:00,82.8,74.1,29.40,SW,229,5.8,5.8,75,0.00,CLR,,0.01,WeatherDisplay:10.37,2013-07-10 17:32:00,
2013-07-10 13:37:00,83.6,74.8,29.40,WSW,254,3.5,3.5,75,0.00,CLR,,0.01,WeatherDisplay:10.37,2013-07-10 17:37:00,
2013-07-10 13:42:00,83.8,73.8,29.40,West,265,11.5,11.5,72,0.00,CLR,,0.01,WeatherDisplay:10.37,2013-07-10 17:42:00,
2013-07-10 13:47:00,83.0,73.9,29.40,West,268,2.3,2.3,74,0.00,CLR,,0.01,WeatherDisplay:10.37,2013-07-10 17:47:00,
2013-07-10 13:52:00,82.8,75.2,29.39,WNW,285,4.6,4.6,78,0.00,CLR,,0.01,WeatherDisplay:10.37,2013-07-10 17:52:00,
2013-07-10 13:57:00,83.4,73.8,29.39,WSW,254,6.9,6.9,73,0.00,CLR,,0.01,WeatherDisplay:10.37,2013-07-10 17:57:00,
2013-07-10 14:02:00,84.0,73.2,29.39,SW,232,11.5,11.5,70,0.00,CLR,,0.01,WeatherDisplay:10.37,2013-07-10 18:02:00,
2013-07-10 14:07:00,84.5,73.6,29.38,South,175,6.9,6.9,70,0.00,CLR,,0.01,WeatherDisplay:10.37,2013-07-10 18:07:00,
2013-07-10 14:12:00,84.5,73.6,29.38,West,265,8.0,8.0,70,0.00,CLR,,0.01,WeatherDisplay:10.37,2013-07-10 18:12:00,
2013-07-10 14:17:00,84.7,73.8,29.38,SW,232,6.9,6.9,70,0.00,CLR,,0.01,WeatherDisplay:10.37,2013-07-10 18:17:00,
2013-07-10 14:22:00,85.3,73.5,29.38,WSW,248,6.9,6.9,68,0.00,CLR,,0.01,WeatherDisplay:10.37,2013-07-10 18:22:00,
2013-07-10 14:28:00,84.9,72.7,29.38,SW,222,8.1,8.1,67,0.00,CLR,,0.01,WeatherDisplay:10.37,2013-07-10 18:28:00,
2013-07-10 14:33:00,84.5,72.8,29.38,SSW,210,5.8,5.8,68,0.00,CLR,,0.01,WeatherDisplay:10.37,2013-07-10 18:33:00,
2013-07-10 14:38:00,84.5,73.6,29.37,WSW,258,5.8,5.8,70,0.00,CLR,,0.01,WeatherDisplay:10.37,2013-07-10 18:38:00,
2013-07-10 14:43:00,84.7,72.5,29.37,SW,236,11.5,11.5,67,0.00,CLR,,0.01,WeatherDisplay:10.37,2013-07-10 18:43:00,
2013-07-10 14:48:00,84.7,73.8,29.37,WSW,247,6.0,6.0,70,0.00,CLR,,0.01,WeatherDisplay:10.37,2013-07-10 18:48:00,
2013-07-10 14:53:00,84.1,73.7,29.36,WSW,241,6.0,6.0,71,0.00,CLR,,0.01,WeatherDisplay:10.37,2013-07-10 18:53:00,
2013-07-10 14:58:00,84.0,73.2,29.36,SW,229,5.8,5.8,70,0.00,CLR,,0.01,WeatherDisplay:10.37,2013-07-10 18:58:00,
2013-07-10 15:03:00,84.5,74.5,29.36,SW,224,1.0,0.0,72,0.00,CLR,,0.01,WeatherDisplay:10.37,2013-07-10 19:03:00,
2013-07-10 15:08:00,84.9,74.0,29.35,SSW,202,10.4,10.4,70,0.00,CLR,,0.01,WeatherDisplay:10.37,2013-07-10 19:08:00,
2013-07-10 15:13:00,85.5,75.0,29.35,SW,233,0.0,3.1,71,0.00,CLR,,0.01,WeatherDisplay:10.37,2013-07-10 19:13:00,
2013-07-10 15:18:00,85.9,74.5,29.35,WNW,285,11.5,11.5,69,0.00,CLR,,0.01,WeatherDisplay:10.37,2013-07-10 19:18:00,
2013-07-10 15:23:00,86.1,73.0,29.34,WSW,244,11.5,11.5,65,0.00,CLR,,0.01,WeatherDisplay:10.37,2013-07-10 19:23:00,
2013-07-10 15:28:00,85.9,72.3,29.34,West,275,9.2,9.2,64,0.00,CLR,,0.01,WeatherDisplay:10.37,2013-07-10 19:28:00,
2013-07-10 15:33:00,85.5,73.7,29.34,West,264,12.7,12.7,68,0.00,CLR,,0.01,WeatherDisplay:10.37,2013-07-10 19:33:00,
2013-07-10 15:38:00,85.1,72.9,29.34,West,264,11.5,11.5,67,0.00,CLR,,0.01,WeatherDisplay:10.37,2013-07-10 19:38:00,
2013-07-10 15:43:00,85.7,73.5,29.34,SSW,212,5.8,5.8,67,0.00,CLR,,0.01,WeatherDisplay:10.37,2013-07-10 19:43:00,
2013-07-10 15:48:00,86.3,74.0,29.34,SW,224,4.6,4.6,67,0.00,CLR,,0.01,WeatherDisplay:10.37,2013-07-10 19:48:00,
2013-07-10 15:53:00,86.1,73.0,29.34,SW,236,12.7,12.7,65,0.00,CLR,,0.01,WeatherDisplay:10.37,2013-07-10 19:53:00,
2013-07-10 15:58:00,85.5,73.7,29.34,WSW,257,3.5,3.5,68,0.00,CLR,,0.01,WeatherDisplay:10.37,2013-07-10 19:58:00,
2013-07-10 16:03:00,85.7,73.0,29.34,WSW,250,0.0,0.2,66,0.00,CLR,,0.01,WeatherDisplay:10.37,2013-07-10 20:03:00,
2013-07-10 16:08:00,85.9,73.7,29.33,West,268,3.5,3.5,67,0.00,CLR,,0.01,WeatherDisplay:10.37,2013-07-10 20:08:00,
2013-07-10 16:13:00,86.1,73.9,29.33,SW,222,8.1,8.1,67,0.00,CLR,,0.01,WeatherDisplay:10.37,2013-07-10 20:13:00,
2013-07-10 16:18:00,86.5,73.8,29.33,West,274,6.9,6.9,66,0.00,CLR,,0.01,WeatherDisplay:10.37,2013-07-10 20:18:00,
2013-07-10 16:23:00,86.5,73.8,29.33,WSW,248,3.5,3.5,66,0.00,CLR,,0.01,WeatherDisplay:10.37,2013-07-10 20:23:00,
2013-07-10 16:28:00,86.3,72.7,29.33,WNW,282,6.9,6.9,64,0.00,CLR,,0.01,WeatherDisplay:10.37,2013-07-10 20:28:00,
2013-07-10 16:33:00,86.7,74.4,29.33,West,260,2.0,2.0,67,0.00,CLR,,0.01,WeatherDisplay:10.37,2013-07-10 20:33:00,
2013-07-10 16:38:00,86.7,74.0,29.33,SW,226,3.5,3.5,66,0.00,CLR,,0.01,WeatherDisplay:10.37,2013-07-10 20:38:00,
2013-07-10 16:43:00,86.7,74.0,29.33,WSW,244,2.3,0.0,66,0.00,CLR,,0.01,WeatherDisplay:10.37,2013-07-10 20:43:00,
2013-07-10 16:48:00,86.7,73.5,29.33,West,275,3.5,4.8,65,0.00,CLR,,0.01,WeatherDisplay:10.37,2013-07-10 20:48:00,
2013-07-10 16:53:00,85.5,73.7,29.32,SW,234,4.6,4.6,68,0.00,CLR,,0.01,WeatherDisplay:10.37,2013-07-10 20:53:00,
2013-07-10 16:58:00,84.9,74.0,29.32,WSW,237,1.1,0.0,70,0.00,CLR,,0.01,WeatherDisplay:10.37,2013-07-10 20:58:00,
2013-07-10 17:03:00,84.7,74.3,29.32,SSW,203,5.8,5.8,71,0.00,CLR,,0.01,WeatherDisplay:10.37,2013-07-10 21:03:00,
2013-07-10 17:08:00,84.7,74.3,29.32,West,263,5.8,5.8,71,0.00,CLR,,0.01,WeatherDisplay:10.37,2013-07-10 21:08:00,
2013-07-10 17:13:00,84.7,74.7,29.32,WSW,251,1.1,0.0,72,0.00,CLR,,0.01,WeatherDisplay:10.37,2013-07-10 21:13:00,
2013-07-10 17:18:00,85.3,75.2,29.32,SW,220,2.3,2.3,72,0.00,CLR,,0.01,WeatherDisplay:10.37,2013-07-10 21:18:00,
2013-07-10 17:23:00,85.3,74.4,29.31,ENE,68,0.0,0.9,70,0.00,CLR,,0.01,WeatherDisplay:10.37,2013-07-10 21:23:00,
2013-07-10 17:28:00,85.5,74.6,29.31,SW,226,3.5,0.0,70,0.00,CLR,,0.01,WeatherDisplay:10.37,2013-07-10 21:28:00,
2013-07-10 17:33:00,85.7,74.8,29.31,WSW,250,8.1,8.1,70,0.00,CLR,,0.01,WeatherDisplay:10.37,2013-07-10 21:33:00,
2013-07-10 17:38:00,85.7,74.4,29.31,SSW,205,5.8,5.8,69,0.00,CLR,,0.01,WeatherDisplay:10.37,2013-07-10 21:38:00,
2013-07-10 17:43:00,85.9,74.1,29.31,SW,223,3.5,3.5,68,0.00,CLR,,0.01,WeatherDisplay:10.37,2013-07-10 21:43:00,
2013-07-10 17:48:00,85.9,74.1,29.31,SW,227,3.5,3.5,68,0.00,CLR,,0.01,WeatherDisplay:10.37,2013-07-10 21:48:00,
2013-07-10 17:53:00,85.7,74.4,29.31,WSW,251,3.5,3.5,69,0.00,CLR,,0.01,WeatherDisplay:10.37,2013-07-10 21:53:00,
2013-07-10 17:58:00,85.5,74.6,29.31,WSW,251,0.0,0.0,70,0.00,CLR,,0.01,WeatherDisplay:10.37,2013-07-10 21:58:00,
2013-07-10 18:03:00,85.5,74.2,29.31,WSW,250,0.0,0.0,69,0.00,CLR,,0.01,WeatherDisplay:10.37,2013-07-10 22:03:00,
2013-07-10 18:08:00,85.3,74.0,29.31,ESE,113,4.6,4.6,69,0.00,CLR,,0.01,WeatherDisplay:10.37,2013-07-10 22:08:00,
2013-07-10 18:13:00,84.5,74.5,29.31,SSW,210,5.8,5.8,72,0.00,CLR,,0.01,WeatherDisplay:10.37,2013-07-10 22:13:00,
2013-07-10 18:18:00,83.8,74.2,29.31,WSW,256,5.0,5.0,73,0.00,CLR,,0.01,WeatherDisplay:10.37,2013-07-10 22:18:00,
2013-07-10 18:23:00,83.0,73.4,29.31,SW,232,5.0,5.0,73,0.00,CLR,,0.01,WeatherDisplay:10.37,2013-07-10 22:23:00,
2013-07-10 18:28:00,82.6,73.9,29.31,WSW,246,5.8,5.8,75,0.00,CLR,,0.01,WeatherDisplay:10.37,2013-07-10 22:28:00,
2013-07-10 18:33:00,82.2,73.5,29.31,WSW,246,3.5,3.5,75,0.00,CLR,,0.01,WeatherDisplay:10.37,2013-07-10 22:33:00,
2013-07-10 18:38:00,82.0,73.7,29.31,WSW,246,2.3,2.3,76,0.00,CLR,,0.01,WeatherDisplay:10.37,2013-07-10 22:38:00,
2013-07-10 18:43:00,81.8,73.9,29.31,West,260,0.0,0.0,77,0.00,CLR,,0.01,WeatherDisplay:10.37,2013-07-10 22:43:00,
2013-07-10 18:48:00,81.6,74.1,29.31,West,260,0.0,0.0,78,0.00,CLR,,0.01,WeatherDisplay:10.37,2013-07-10 22:48:00,
2013-07-10 18:53:00,81.6,74.1,29.31,SW,229,1.1,1.1,78,0.00,CLR,,0.01,WeatherDisplay:10.37,2013-07-10 22:53:00,
2013-07-10 18:58:00,81.4,73.9,29.31,ESE,119,0.0,0.7,78,0.00,CLR,,0.01,WeatherDisplay:10.37,2013-07-10 22:58:00,
2013-07-10 19:03:00,81.4,73.5,29.31,West,265,0.0,0.0,77,0.00,CLR,,0.01,WeatherDisplay:10.37,2013-07-10 23:03:00,
2013-07-10 19:08:00,81.4,73.5,29.31,NE,45,2.0,2.0,77,0.00,CLR,,0.01,WeatherDisplay:10.37,2013-07-10 23:08:00,
2013-07-10 19:13:00,81.2,72.9,29.31,WSW,246,0.0,0.0,76,0.00,CLR,,0.01,WeatherDisplay:10.37,2013-07-10 23:13:00,
2013-07-10 19:18:00,81.2,72.9,29.31,West,270,2.3,2.3,76,0.00,CLR,,0.01,WeatherDisplay:10.37,2013-07-10 23:18:00,
2013-07-10 19:23:00,81.1,72.8,29.32,WSW,246,0.0,0.0,76,0.00,CLR,,0.01,WeatherDisplay:10.37,2013-07-10 23:23:00,
2013-07-10 19:28:00,81.1,73.2,29.32,WSW,246,0.0,0.0,77,0.00,CLR,,0.01,WeatherDisplay:10.37,2013-07-10 23:28:00,
2013-07-10 19:33:00,80.9,73.0,29.32,SW,227,0.0,0.0,77,0.00,CLR,,0.01,WeatherDisplay:10.37,2013-07-10 23:33:00,
2013-07-10 19:38:00,80.7,72.8,29.32,WSW,240,1.1,1.1,77,0.00,CLR,,0.01,WeatherDisplay:10.37,2013-07-10 23:38:00,
2013-07-10 19:43:00,80.5,72.6,29.32,SW,219,0.0,0.0,77,0.00,CLR,,0.01,WeatherDisplay:10.37,2013-07-10 23:43:00,
2013-07-10 19:48:00,80.5,73.0,29.32,WSW,256,0.0,0.0,78,0.00,CLR,,0.01,WeatherDisplay:10.37,2013-07-10 23:48:00,
2013-07-10 19:53:00,80.3,72.8,29.33,WSW,254,0.0,0.0,78,0.00,CLR,,0.01,WeatherDisplay:10.37,2013-07-10 23:53:00,
2013-07-10 19:58:00,80.3,73.2,29.33,WSW,254,0.0,0.0,79,0.00,CLR,,0.01,WeatherDisplay:10.37,2013-07-10 23:58:00,
2013-07-10 20:03:00,80.1,72.6,29.33,WSW,254,0.0,0.0,78,0.00,CLR,,0.01,WeatherDisplay:10.37,2013-07-11 00:03:00,
2013-07-10 20:08:00,79.9,72.4,29.33,WSW,254,0.0,0.0,78,0.00,CLR,,0.01,WeatherDisplay:10.37,2013-07-11 00:08:00,
2013-07-10 20:13:00,79.8,72.7,29.33,WSW,254,0.0,0.0,79,0.00,CLR,,0.01,WeatherDisplay:10.37,2013-07-11 00:13:00,
2013-07-10 20:18:00,79.8,72.7,29.33,East,83,0.0,0.0,79,0.00,CLR,,0.01,WeatherDisplay:10.37,2013-07-11 00:18:00,
2013-07-10 20:23:00,79.6,72.5,29.33,East,83,0.0,0.0,79,0.00,CLR,,0.01,WeatherDisplay:10.37,2013-07-11 00:23:00,
2013-07-10 20:28:00,79.2,71.7,29.33,WSW,241,0.0,0.0,78,0.00,CLR,,0.01,WeatherDisplay:10.37,2013-07-11 00:28:00,
2013-07-10 20:33:00,79.0,71.9,29.33,WSW,241,0.0,0.0,79,0.00,CLR,,0.01,WeatherDisplay:10.37,2013-07-11 00:33:00,
2013-07-10 20:38:00,78.8,72.1,29.33,SW,236,0.0,0.0,80,0.00,CLR,,0.01,WeatherDisplay:10.37,2013-07-11 00:38:00,
2013-07-10 20:43:00,78.8,72.5,29.33,WSW,237,0.0,0.0,81,0.00,CLR,,0.01,WeatherDisplay:10.37,2013-07-11 00:43:00,
2013-07-10 20:48:00,78.6,72.6,29.33,WSW,237,0.0,0.0,82,0.00,CLR,,0.01,WeatherDisplay:10.37,2013-07-11 00:48:00,
2013-07-10 20:53:00,78.3,72.3,29.33,WSW,237,0.0,0.0,82,0.00,CLR,,0.01,WeatherDisplay:10.37,2013-07-11 00:53:00,
2013-07-10 20:58:00,78.1,72.2,29.33,WSW,237,0.0,0.0,82,0.00,CLR,,0.01,WeatherDisplay:10.37,2013-07-11 00:58:00,
2013-07-10 21:03:00,77.7,72.1,29.33,WSW,237,0.0,0.0,83,0.00,CLR,,0.01,WeatherDisplay:10.37,2013-07-11 01:03:00,
2013-07-10 21:08:00,77.6,72.4,29.32,WSW,237,1.1,1.1,84,0.00,CLR,,0.01,WeatherDisplay:10.37,2013-07-11 01:08:00,
2013-07-10 21:13:00,77.4,72.2,29.32,SW,236,0.0,0.0,84,0.00,CLR,,0.01,WeatherDisplay:10.37,2013-07-11 01:13:00,
2013-07-10 21:18:00,77.4,72.5,29.32,SW,236,0.0,0.0,85,0.00,CLR,,0.01,WeatherDisplay:10.37,2013-07-11 01:18:00,
2013-07-10 21:23:00,77.2,72.3,29.32,SW,236,0.0,0.0,85,0.00,CLR,,0.01,WeatherDisplay:10.37,2013-07-11 01:23:00,
2013-07-10 21:28:00,77.4,72.2,29.32,WSW,243,3.5,3.5,84,0.00,CLR,,0.01,WeatherDisplay:10.37,2013-07-11 01:28:00,
2013-07-10 21:33:00,77.6,72.0,29.32,WSW,244,5.8,5.8,83,0.00,CLR,,0.01,WeatherDisplay:10.37,2013-07-11 01:33:00,
2013-07-10 21:38:00,77.6,72.0,29.33,WSW,243,0.0,0.0,83,0.00,CLR,,0.01,WeatherDisplay:10.37,2013-07-11 01:38:00,
2013-07-10 21:43:00,77.7,72.1,29.33,SW,232,6.9,6.9,83,0.00,CLR,,0.01,WeatherDisplay:10.37,2013-07-11 01:43:00,
2013-07-10 21:49:00,77.9,72.3,29.33,SW,226,0.0,0.0,83,0.00,CLR,,0.01,WeatherDisplay:10.37,2013-07-11 01:49:00,
2013-07-10 21:50:00,77.9,72.3,29.33,SW,226,0.0,0.0,83,0.00,CLR,,0.01,WeatherDisplay:10.37,2013-07-11 01:50:00,
2013-07-10 21:55:00,78.1,72.5,29.34,SW,229,0.0,0.0,83,0.00,CLR,,0.01,WeatherDisplay:10.37,2013-07-11 01:55:00,
2013-07-10 22:00:00,78.1,72.5,29.34,South,186,0.0,0.0,83,0.00,CLR,,0.01,WeatherDisplay:10.37,2013-07-11 02:00:00,
2013-07-10 22:05:00,78.1,72.5,29.34,WSW,239,3.5,3.5,83,0.00,CLR,,0.01,WeatherDisplay:10.37,2013-07-11 02:05:00,
2013-07-10 22:10:00,78.1,72.5,29.34,SW,224,3.5,3.5,83,0.00,CLR,,0.01,WeatherDisplay:10.37,2013-07-11 02:10:00,
2013-07-10 22:15:00,78.3,72.3,29.34,SW,226,8.1,8.1,82,0.00,CLR,,0.01,WeatherDisplay:10.37,2013-07-11 02:15:00,
2013-07-10 22:20:00,77.9,71.2,29.34,WSW,246,17.3,17.3,80,0.00,CLR,,0.01,WeatherDisplay:10.37,2013-07-11 02:20:00,
2013-07-10 22:25:00,77.2,70.5,29.37,NNW,336,4.6,4.6,80,0.00,CLR,,0.01,WeatherDisplay:10.37,2013-07-11 02:25:00,
2013-07-10 22:30:00,76.5,70.2,29.37,West,271,11.5,11.5,81,0.00,CLR,,0.01,WeatherDisplay:10.37,2013-07-11 02:30:00,
2013-07-10 22:35:00,75.6,70.1,29.37,SW,234,11.5,11.5,83,0.00,CLR,,0.01,WeatherDisplay:10.37,2013-07-11 02:35:00,
2013-07-10 22:40:00,74.9,70.4,29.37,SW,234,6.9,6.9,86,0.00,CLR,,0.01,WeatherDisplay:10.37,2013-07-11 02:40:00,
2013-07-10 22:45:00,74.0,69.9,29.37,West,278,7.0,7.0,87,0.00,CLR,,0.01,WeatherDisplay:10.37,2013-07-11 02:45:00,
2013-07-10 22:50:00,73.5,70.1,29.37,WSW,240,9.2,9.2,89,0.00,CLR,,0.01,WeatherDisplay:10.37,2013-07-11 02:50:00,
2013-07-10 22:55:00,73.2,70.1,29.36,South,174,4.6,0.0,90,0.00,CLR,,0.01,WeatherDisplay:10.37,2013-07-11 02:55:00,
2013-07-10 23:00:00,72.7,69.6,29.36,SW,236,6.9,6.9,90,0.00,CLR,,0.01,WeatherDisplay:10.37,2013-07-11 03:00:00,
2013-07-10 23:05:00,72.5,69.4,29.36,West,260,4.0,4.0,90,0.00,CLR,,0.01,WeatherDisplay:10.37,2013-07-11 03:05:00,
2013-07-10 23:10:00,72.0,69.2,29.35,SW,233,6.0,6.0,91,0.00,CLR,,0.01,WeatherDisplay:10.37,2013-07-11 03:10:00,
2013-07-10 23:15:00,71.8,69.3,29.35,SW,230,2.3,2.3,92,0.00,CLR,,0.01,WeatherDisplay:10.37,2013-07-11 03:15:00,
2013-07-10 23:20:00,71.6,69.2,29.35,WSW,248,6.9,6.9,92,0.00,CLR,,0.01,WeatherDisplay:10.37,2013-07-11 03:20:00,
2013-07-10 23:25:00,71.5,69.1,29.35,WSW,240,1.1,1.1,92,0.00,CLR,,0.01,WeatherDisplay:10.37,2013-07-11 03:25:00,
2013-07-10 23:30:00,71.3,69.2,29.35,WSW,239,0.0,0.0,93,0.00,CLR,,0.01,WeatherDisplay:10.37,2013-07-11 03:30:00,
2013-07-10 23:35:00,71.5,69.7,29.35,WSW,239,0.0,0.0,94,0.00,CLR,,0.01,WeatherDisplay:10.37,2013-07-11 03:35:00,
2013-07-10 23:40:00,71.5,69.7,29.34,WSW,239,0.0,0.0,94,0.00,CLR,,0.01,WeatherDisplay:10.37,2013-07-11 03:40:00,
2013-07-10 23:45:00,71.5,70.0,29.34,WSW,239,0.0,0.0,95,0.00,CLR,,0.01,WeatherDisplay:10.37,2013-07-11 03:45:00,
2013-07-10 23:50:00,71.6,70.1,29.34,WSW,239,3.5,3.5,95,0.00,CLR,,0.01,WeatherDisplay:10.37,2013-07-11 03:50:00,
2013-07-10 23:55:00,71.6,70.1,29.34,WSW,239,0.0,0.0,95,0.00,CLR,,0.01,WeatherDisplay:10.37,2013-07-11 03:55:00,